Location: Dehesa de la Cepeda
(40.6574°N, 4.3013°W)
Time: 10:22:55
(UTC+00:00)

Transit 2A Rocket - Pass Details

Date: 08 August 2021
Orbit: 586 x 917 km, 66.7° (Epoch: 24 September)

Event Time Altitude Azimuth Distance (km) Brightness Sun altitude
Rises 12:13:13 0° 200° (SSW) 2,826 8.3 65.2°
Reaches altitude 10° 12:15:24 10° 198° (SSW) 1,952 7.6 65.3°
Maximum altitude 12:19:43 66° 116° (ESE) 695 6.3 65.3°
Drops below altitude 10° 12:24:26 10° 35° (NE) 2,120 7.2 65.3°
Sets 12:26:53 0° 33° (NNE) 3,093 7.9 65.3°
